Theta_e
303 304 305 304 304 304 304 304 304 303 302 302 302 302 302 302 302 303 301 301 301 302 303 303 304 306 307 306 308 307 306 303 304 307 310 311 310 311 313 315 316 317 318 319 317 322 318 313 315 322 318 316 319 319
304 304 304 303 303 303 303 303 302 302 301 301 301 301 301 302 302 303 301 301 301 301 304 305 305 305 305 306 306 306 305 305 305 308 308 309 312 310 312 314 312 317 315 315 313 314 310 313 315 315 316 317 318 319
303 303 302 302 302 302 298 296 298 299 300 300 300 300 301 301 302 302 302 301 300 299 302 303 305 308 308 307 307 308 301 302 303 304 303 309 312 311 314 311 314 313 313 315 315 314 314 315 314 315 316 316 315 316
302 302 301 301 300 297 297 296 297 298 299 300 300 300 301 301 302 302 302 301 300 302 307 304 306 306 307 309 308 307 304 304 303 305 307 309 311 311 311 312 314 309 310 311 315 313 312 314 314 315 315 315 315 314
301 300 300 298 296 295 294 296 295 296 298 298 299 301 301 301 301 301 301 301 300 303 308 306 305 307 307 307 308 308 305 305 306 307 309 312 312 314 312 309 311 310 313 313 313 310 311 312 312 313 314 315 315 315
297 295 294 295 295 296 296 296 296 295 296 298 300 300 300 301 301 301 303 305 303 300 306 308 304 305 307 308 308 307 306 306 306 309 312 312 313 311 311 311 309 309 310 311 313 311 311 311 312 311 313 314 314 314
293 295 295 295 296 295 296 296 296 297 297 297 298 298 299 301 301 301 305 305 304 303 308 307 305 306 308 309 310 307 307 307 309 312 312 310 310 308 308 311 310 310 310 310 311 310 312 312 313 312 313 314 314 316
293 293 294 294 294 295 295 296 296 297 297 296 296 298 301 302 302 301 305 305 306 307 306 307 306 306 309 309 310 308 310 310 309 309 308 311 308 307 309 309 310 310 309 309 311 311 312 312 314 314 313 314 316 316
294 294 294 294 295 295 295 295 296 296 296 300 302 304 304 303 305 308 307 307 307 307 308 308 303 305 310 311 310 306 306 309 310 311 311 310 308 306 308 309 310 310 309 309 310 312 312 314 314 314 313 313 315 315
293 293 294 294 294 294 294 295 295 296 300 303 306 306 309 305 304 306 306 307 306 306 307 310 305 307 308 310 312 308 306 309 311 312 311 310 308 309 308 309 308 309 309 308 309 311 311 311 313 312 311 311 312 313
292 293 293 293 293 294 294 296 296 298 301 300 300 303 301 302 304 307 310 306 306 309 306 305 305 305 307 311 312 306 307 308 310 311 316 313 310 311 309 310 310 309 309 309 310 311 310 310 309 309 310 310 310 310
292 292 292 293 293 294 296 297 297 298 298 298 299 300 301 303 306 309 309 310 311 311 307 307 307 306 308 307 306 306 308 309 312 312 314 314 312 309 309 311 310 309 309 309 309 310 310 310 309 308 308 308 308 308
292 292 292 293 293 295 297 297 296 296 296 300 302 303 303 304 307 309 307 310 314 311 311 311 312 311 308 308 307 306 307 305 306 304 309 311 311 309 308 310 309 310 309 310 310 311 311 312 310 308 306 307 307 306
291 292 292 294 295 296 295 295 295 294 298 303 305 304 305 304 307 307 307 308 311 312 312 309 312 310 308 309 310 312 308 307 307 305 308 310 312 312 311 309 309 309 310 310 311 311 311 309 309 308 306 306 305 306
291 292 294 296 295 294 294 294 293 295 299 303 305 307 306 305 306 307 308 309 311 312 310 309 308 308 309 312 311 309 311 306 301 301 304 309 310 310 311 309 308 308 307 309 310 309 309 309 309 308 306 306 305 304
291 292 295 293 293 292 291 293 295 296 300 302 304 305 304 305 306 307 307 311 312 312 312 307 308 309 311 309 311 311 306 306 302 302 308 309 311 310 310 308 307 307 306 306 308 309 309 309 308 307 307 306 305 303
292 293 292 292 292 292 292 295 299 300 299 303 304 302 303 304 305 306 306 306 309 312 314 314 312 311 308 308 308 306 307 303 304 305 308 310 311 311 310 309 309 308 306 307 308 309 308 307 307 306 305 304 304 302
291 290 291 291 292 294 295 298 299 301 303 302 302 301 299 300 301 303 304 305 309 312 312 313 312 312 309 310 305 307 307 307 308 309 309 309 310 310 310 308 308 309 307 308 310 309 308 306 305 304 304 303 303 303
291 291 291 292 293 295 295 297 300 300 300 300 300 301 301 303 304 304 305 306 306 309 311 311 313 310 309 308 309 310 310 310 309 309 309 308 308 309 310 309 309 308 307 309 309 309 308 308 307 305 303 302 301 301
291 291 291 293 293 295 297 296 298 300 302 300 299 300 300 301 302 303 305 305 307 311 313 314 311 308 307 307 307 308 308 309 309 310 310 308 308 309 308 308 307 308 306 307 308 308 307 307 306 305 304 302 301 300
292 292 292 292 295 295 296 296 297 298 300 301 301 299 299 300 301 303 303 302 303 308 311 310 309 307 307 305 306 306 306 307 308 310 309 308 308 309 309 309 308 306 307 306 305 307 308 307 305 304 304 302 301 300
291 292 292 292 294 295 295 296 296 296 297 297 297 296 296 297 297 298 298 301 302 303 305 307 308 308 309 308 307 307 308 309 308 308 308 308 309 308 308 307 307 306 305 306 306 306 306 307 305 304 302 302 301 300
292 293 293 293 295 294 294 296 298 298 299 299 299 300 299 299 299 299 301 302 302 303 305 305 306 308 308 309 310 309 309 308 308 308 307 309 309 309 309 308 308 307 305 305 307 307 304 306 305 303 301 301 300 298
293 292 295 295 293 291 296 297 297 298 299 297 298 298 298 298 299 300 302 300 304 304 304 305 306 308 308 308 307 309 309 309 306 307 308 308 308 307 309 309 310 309 308 306 306 305 304 305 304 303 302 300 298 297
291 288 292 289 293 296 297 297 297 296 297 298 298 298 298 298 298 299 300 303 302 302 303 304 305 304 307 308 307 305 307 308 305 304 307 307 308 308 309 309 309 308 307 306 305 305 303 304 303 303 302 300 298 297
289 291 290 294 294 296 296 297 296 295 296 298 300 300 298 298 301 303 304 302 300 300 301 303 304 303 304 304 306 306 306 308 308 306 307 308 309 308 308 307 306 307 307 307 306 304 303 302 302 302 301 300 299 297
289 288 291 292 291 292 292 293 293 294 296 297 297 297 298 303 303 302 299 299 300 298 299 300 301 302 302 304 304 305 306 307 308 308 309 309 309 309 309 308 307 307 306 306 306 305 304 302 301 300 300 299 298 297
292 292 292 291 291 291 293 293 294 295 296 297 298 299 299 301 301 299 296 298 300 299 299 299 297 299 300 301 298 299 301 304 307 308 308 308 308 308 308 308 309 308 306 306 305 304 304 303 301 300 299 299 298 297
293 293 293 293 293 293 293 293 294 294 295 296 296 298 300 299 295 293 293 294 294 295 296 295 294 295 297 297 298 296 296 298 301 303 304 303 303 306 305 305 303 302 306 305 305 305 304 303 302 300 299 298 297 296
294 293 294 294 294 294 294 295 294 294 294 294 295 296 298 293 290 290 290 290 291 292 292 293 294 293 294 295 296 297 295 295 295 297 300 300 301 302 304 304 304 304 301 304 304 303 303 302 300 299 297 296 296 295
294 295 295 296 296 295 295 295 295 296 296 296 296 296 295 293 291 288 288 289 289 290 290 292 292 291 292 293 294 294 294 294 294 296 296 297 300 302 303 304 304 304 299 298 301 301 300 299 298 296 295 295 294 294
295 297 298 298 297 295 297 297 296 297 297 297 297 296 297 293 292 289 288 288 288 289 290 291 291 291 292 292 292 292 291 291 293 295 297 297 297 298 301 302 302 303 302 298 299 299 299 298 297 295 295 294 293 293
296 297 298 299 299 297 297 297 297 297 297 297 295 293 291 290 289 288 288 287 287 288 290 290 290 289 290 290 291 291 291 290 291 292 294 296 297 297 296 297 298 300 300 298 297 297 297 297 295 294 292 291 290 289
Wind_Speed
25 26 25 24 24 25 26 25 24 23 25 23 21 20 21 18 15 11 14 14 5 4 12 16 12 8 8 4 3 5 5 5 4 6 3 3 2 3 4 4 7 3 4 2 3 2 4 15 3 6 6 11 15 17
25 25 25 24 24 23 23 24 25 26 27 24 22 21 21 19 16 14 9 9 14 8 7 24 30 38 32 36 4 2 3 2 2 2 2 3 3 3 4 4 5 3 4 3 2 2 5 7 11 10 8 16 11 12
25 25 24 23 22 22 24 24 24 24 24 24 22 21 21 20 17 15 18 15 8 3 7 5 7 5 13 21 24 3 2 4 1 0 2 3 4 2 2 1 3 3 1 2 3 4 7 6 11 10 12 15 17 17
24 23 22 24 25 24 23 24 24 25 25 24 24 22 22 21 20 19 19 14 8 6 3 6 7 18 15 7 21 20 7 5 3 1 2 3 3 3 2 3 1 3 4 5 3 5 9 3 3 6 15 14 19 19
23 24 26 28 27 25 25 25 25 26 26 25 23 23 21 21 21 22 29 24 25 6 3 6 21 11 11 17 22 18 13 4 2 2 3 3 3 2 1 2 2 2 3 2 3 6 4 10 13 7 12 15 19 20
25 24 23 23 24 25 25 25 26 27 25 24 25 24 22 19 17 10 3 2 14 21 3 4 6 5 4 21 19 14 9 3 2 2 3 3 4 2 1 3 3 3 3 2 4 9 10 11 10 5 8 16 20 19
21 21 22 22 23 24 24 25 25 27 28 28 29 28 23 18 13 6 5 6 7 9 2 4 4 5 5 8 3 2 7 3 2 2 3 3 3 2 2 0 6 7 5 6 7 5 5 7 9 16 12 9 15 10
19 20 21 22 23 23 23 24 25 28 30 31 30 26 26 23 18 12 13 17 8 6 2 3 4 5 3 3 2 5 4 3 3 3 2 2 2 2 1 4 4 4 6 6 7 5 5 8 8 8 9 11 12 13
18 20 22 23 23 23 24 25 25 29 29 29 24 20 1 3 5 3 1 8 15 5 2 3 2 4 2 2 2 3 3 2 3 4 3 3 1 1 6 4 5 3 2 5 8 6 8 10 9 9 8 12 12 14
18 20 21 22 24 24 25 25 24 24 27 19 7 1 2 2 7 4 1 1 1 2 2 4 2 4 3 2 4 3 1 3 1 4 1 2 3 4 6 7 6 4 5 5 5 8 7 9 9 8 9 9 10 10
18 20 21 21 22 23 24 24 20 19 12 10 7 3 9 15 2 2 3 3 3 3 3 4 7 4 2 3 4 2 2 2 0 3 2 2 2 4 5 7 6 4 4 5 3 2 4 5 6 5 6 8 8 9
17 19 21 22 22 21 18 15 13 15 13 12 16 14 6 3 3 3 3 3 5 4 4 4 5 5 3 3 2 2 1 2 3 1 3 2 3 4 5 5 6 7 6 4 5 6 6 6 6 6 6 9 11 15
18 20 21 22 18 12 10 13 15 19 24 5 3 2 2 2 2 5 4 4 3 3 3 3 3 4 1 2 1 2 2 4 2 3 2 3 1 1 2 5 5 6 6 5 3 4 3 7 7 6 6 11 12 14
20 21 22 18 8 8 13 18 20 23 5 3 3 4 4 4 5 5 4 3 4 2 6 3 2 3 2 3 3 2 4 2 3 2 3 2 3 5 4 5 6 7 8 7 5 3 2 4 4 6 14 14 14 17
21 23 15 5 12 19 24 27 21 7 3 3 3 5 7 6 4 4 5 5 6 4 3 2 2 3 1 3 2 1 1 3 5 4 3 4 9 11 5 2 7 7 7 6 5 5 5 4 6 10 13 15 18 20
21 17 3 20 24 27 25 21 10 8 3 3 5 4 4 3 4 2 3 5 3 3 5 2 3 3 3 4 3 5 5 5 4 3 3 5 8 8 5 4 5 6 7 7 9 8 5 7 7 10 14 17 16 18
16 4 18 24 24 27 19 5 4 5 4 4 4 5 7 7 8 9 4 4 2 3 3 2 4 6 2 2 2 4 5 4 4 3 3 6 5 5 8 5 4 6 7 12 11 12 8 9 13 15 9 15 18 18
19 21 22 22 23 20 5 5 4 4 7 6 4 5 3 4 5 6 5 7 3 3 4 5 2 2 3 5 3 4 4 3 4 4 4 5 7 9 7 6 8 8 6 12 14 13 12 11 8 7 15 17 21 19
21 22 22 14 15 6 3 4 5 4 5 3 4 4 4 6 8 9 8 10 7 4 4 2 4 3 4 4 4 3 3 3 3 3 3 4 2 6 8 11 15 10 9 17 17 13 13 13 10 12 14 18 15 17
21 22 17 8 11 4 4 4 5 4 4 4 2 6 3 4 6 4 6 5 2 2 2 4 4 4 4 4 4 5 5 5 4 3 4 4 9 5 5 11 10 17 10 12 13 18 14 13 13 15 14 15 17 16
19 4 14 13 4 11 3 3 4 4 4 3 3 3 4 4 4 3 3 1 1 3 3 4 4 5 6 5 7 5 5 5 5 6 6 4 4 14 12 17 19 11 9 10 5 12 14 13 19 19 17 16 18 18
13 12 10 5 5 4 4 9 3 5 3 3 6 5 3 3 4 3 3 2 3 4 4 4 5 7 7 5 7 9 10 15 12 4 2 8 5 4 4 8 8 4 9 13 16 12 15 24 26 22 21 21 20 17
12 5 6 5 3 3 6 7 4 4 3 3 3 4 3 3 4 3 3 3 4 4 9 7 9 15 12 13 5 3 8 11 5 7 8 11 13 14 12 13 16 11 5 12 23 22 19 29 29 24 24 21 20 18
7 3 3 3 5 4 3 3 4 3 3 4 3 5 6 5 4 3 3 2 5 8 10 14 11 10 6 1 3 3 8 12 9 10 17 14 7 7 18 17 15 11 17 26 26 26 26 25 29 25 22 20 20 19
2 5 2 5 4 4 4 3 3 3 6 9 9 7 4 2 2 3 6 4 7 8 9 10 8 7 7 5 3 3 5 8 1 5 13 18 12 12 11 16 18 12 17 22 19 22 22 26 26 26 23 22 21 20
3 4 5 4 3 1 5 6 6 5 4 4 3 4 3 2 2 3 3 5 6 7 9 9 8 9 11 10 8 7 9 4 8 4 6 20 23 15 7 7 5 10 23 31 26 21 24 26 27 26 23 23 22 22
4 5 4 4 2 3 4 3 4 3 5 3 3 3 3 3 4 2 1 3 3 9 17 18 16 10 8 11 21 26 27 17 9 8 9 20 21 26 28 17 10 19 28 29 32 31 30 27 26 26 25 25 25 23
5 4 5 5 5 3 6 3 2 3 4 1 3 3 1 2 2 3 2 16 4 10 15 18 21 16 15 18 20 23 23 25 19 21 20 18 15 9 8 13 11 15 21 26 34 34 35 33 30 29 28 27 23 22
4 3 4 9 8 4 6 5 4 4 3 1 1 1 2 2 4 4 9 18 17 17 14 14 19 21 20 20 18 20 22 25 16 12 10 5 4 10 10 6 6 7 22 32 34 36 35 34 33 34 32 29 26 23
4 3 3 3 3 4 4 4 4 4 3 4 3 3 3 3 11 17 18 19 17 15 15 13 13 15 13 12 12 16 23 23 20 11 4 4 8 17 9 2 1 6 7 18 25 29 30 30 32 32 30 29 27 25
3 2 4 4 4 5 8 7 6 5 3 3 3 2 4 4 4 19 23 17 16 14 13 13 14 15 14 14 13 8 8 21 21 20 18 11 7 11 12 5 7 9 11 20 35 33 34 31 30 29 29 30 29 28
3 4 2 3 3 4 5 2 2 3 3 3 3 3 3 3 3 4 21 21 16 14 15 16 14 15 19 18 17 15 15 19 20 20 23 24 22 18 15 14 6 10 18 16 26 32 34 33 29 28 27 27 27 28
4 4 3 3 2 4 1 1 2 2 4 4 5 6 4 3 4 4 13 27 20 16 15 16 17 20 22 21 19 18 19 20 23 22 21 20 17 20 22 20 19 17 20 17 10 15 20 27 26 28 29 30 29 28
Wind_Direction
318 319 319 319 318 318 317 317 317 317 317 317 317 321 322 321 324 314 292 312 236 254 277 263 265 261 276 251 279 324 339 3 339 15 356 332 306 317 310 300 330 352 303 306 308 340 332 345 341 61 13 326 305 299
315 315 314 313 315 317 318 315 314 315 314 313 313 314 315 317 316 308 274 296 289 248 266 293 279 267 251 249 247 233 197 260 277 321 333 300 297 307 303 324 338 5 357 318 342 301 273 357 344 356 335 317 308 295
312 312 312 314 312 315 317 320 322 318 315 315 313 314 311 313 313 305 287 298 292 257 277 257 255 330 328 232 208 176 251 201 304 82 279 283 277 233 307 307 283 290 252 306 294 278 288 38 1 346 339 313 324 337
311 312 310 309 311 314 315 319 318 314 314 314 313 314 309 308 307 304 285 274 241 270 278 279 310 275 283 247 197 203 145 136 174 225 247 265 272 210 257 270 276 242 328 307 273 308 322 297 294 3 303 317 350 334
308 309 310 313 314 314 317 317 315 310 312 312 311 312 311 309 311 306 292 265 226 226 283 293 303 286 319 214 181 179 144 129 184 247 226 247 264 258 280 293 298 330 325 356 289 304 278 303 326 311 355 335 331 328
310 313 316 316 316 317 316 319 316 314 314 311 308 307 309 312 316 325 302 332 207 202 288 301 293 289 309 174 172 173 162 142 181 221 253 263 240 184 67 292 292 268 285 253 285 317 305 296 298 329 3 331 315 313
318 318 317 317 316 318 319 319 320 318 316 312 308 310 310 308 292 219 247 136 138 208 258 294 292 270 214 173 174 131 179 186 196 239 224 239 275 97 96 359 283 319 276 301 307 338 327 322 317 321 354 297 288 335
320 319 317 317 319 319 318 317 315 316 313 311 311 309 305 294 278 262 276 227 229 204 264 265 274 321 192 178 226 166 172 171 218 222 276 236 336 62 341 256 277 313 326 327 329 288 259 282 338 355 350 2 356 11
324 320 321 322 323 324 322 318 316 317 321 319 315 308 345 145 191 288 225 192 195 199 235 238 217 268 333 325 284 336 134 179 202 202 227 118 317 189 248 276 278 265 254 290 327 341 17 15 357 353 5 13 13 13
322 321 323 324 325 325 326 325 323 330 330 331 335 205 128 45 306 296 196 163 170 225 252 245 237 258 34 27 0 310 6 224 216 245 125 117 225 236 223 238 252 248 260 306 5 5 358 6 353 14 12 5 15 7
322 322 323 323 324 324 325 325 330 339 344 357 354 352 315 330 248 209 213 178 183 234 220 236 211 217 250 165 215 189 267 282 318 283 144 315 273 229 201 205 244 228 210 266 54 54 13 358 348 20 17 14 9 5
319 321 322 323 324 325 338 349 353 347 327 304 288 297 293 294 252 250 221 190 197 237 205 199 199 186 254 122 107 309 212 353 260 335 123 238 242 204 156 189 197 207 196 142 77 24 5 359 8 18 15 18 22 27
322 323 323 321 325 338 342 343 341 336 330 291 203 235 231 235 241 222 220 212 215 219 201 200 176 159 85 106 96 76 40 250 341 30 239 232 231 160 110 132 132 179 164 128 164 161 335 12 48 46 58 44 38 36
323 324 322 325 336 324 322 323 331 334 307 260 235 244 203 213 232 208 219 224 247 246 251 155 175 144 164 126 155 167 232 71 347 350 246 252 50 334 342 131 124 122 163 153 184 219 20 53 2 51 70 48 42 40
322 322 328 351 325 323 320 315 315 309 267 269 241 242 220 221 261 252 244 265 274 269 239 277 76 111 166 145 191 139 265 271 201 232 226 193 177 214 267 249 145 124 135 151 165 163 146 94 53 43 80 64 53 45
325 327 169 343 330 324 319 316 309 192 240 236 241 274 287 281 276 303 287 301 283 1 324 322 135 134 188 160 149 208 148 220 246 218 221 178 217 220 229 224 137 149 127 151 136 154 122 81 62 70 88 57 70 53
321 256 312 319 323 323 321 250 226 207 225 236 243 231 249 273 276 282 274 261 343 141 181 32 265 194 149 150 198 179 202 214 220 235 196 205 183 312 261 213 181 154 134 154 133 131 120 100 80 67 75 63 71 65
295 301 305 314 329 329 296 226 251 243 229 236 243 253 235 228 267 273 268 278 180 182 150 203 266 314 215 185 235 232 230 242 230 211 185 196 170 196 204 189 173 158 151 145 132 138 136 109 87 76 87 70 61 58
302 304 308 313 328 294 284 254 217 258 255 273 263 257 239 262 261 261 270 275 260 217 141 147 208 222 230 221 191 176 180 180 250 233 197 234 232 199 210 199 166 181 156 149 146 161 160 142 131 116 107 84 79 65
306 307 302 287 320 251 255 255 259 265 261 246 287 278 234 246 264 254 272 278 283 188 130 174 211 247 210 223 188 187 191 197 152 142 214 234 225 208 180 173 184 203 184 162 159 155 147 133 131 130 123 104 94 77
313 304 323 327 265 218 276 275 261 237 261 268 287 339 276 320 302 289 285 300 310 221 225 209 221 240 234 239 214 204 213 171 180 179 191 192 173 154 162 186 186 180 148 141 132 150 165 158 148 139 130 116 104 95
275 293 298 276 233 243 235 234 234 294 309 274 300 278 249 276 287 273 261 226 227 241 222 222 237 241 261 254 243 215 227 195 187 170 156 159 158 169 192 193 138 136 160 158 160 155 157 161 157 147 136 129 126 113
291 261 221 245 241 242 256 223 238 221 252 264 347 332 311 308 270 331 282 287 264 336 336 305 268 244 237 245 182 162 199 198 182 191 183 190 195 191 189 194 185 145 167 189 173 168 161 156 158 151 143 135 125 113
267 241 249 230 194 258 258 235 218 253 291 309 295 287 284 265 289 282 268 5 7 347 358 352 356 360 330 100 141 163 219 254 226 189 180 171 178 187 189 192 182 186 182 168 164 161 153 157 157 158 156 146 137 129
320 264 219 267 254 219 244 238 217 232 291 321 288 265 261 309 306 266 276 22 1 359 350 356 360 358 7 336 345 349 16 60 207 189 189 168 140 125 132 147 150 159 178 153 160 159 148 157 160 158 153 151 143 141
264 245 179 247 273 335 22 343 19 313 284 302 322 281 288 263 266 13 46 5 17 358 351 358 356 8 13 6 349 334 317 9 78 87 157 163 159 158 156 152 151 186 187 175 165 157 152 157 156 156 154 153 151 147
243 268 243 242 238 303 295 299 309 294 300 262 262 296 322 356 14 38 27 332 352 355 0 6 4 23 15 5 352 356 349 2 64 97 138 184 185 176 166 172 190 201 191 187 173 166 162 163 160 157 154 160 161 158
232 264 242 254 252 231 263 268 280 255 252 196 333 346 322 256 337 11 316 340 269 21 12 10 0 359 12 36 16 13 357 3 49 67 78 72 77 101 163 184 190 225 216 200 177 174 171 169 165 158 158 156 159 162
246 266 295 284 278 249 256 235 220 211 215 97 296 314 268 63 3 353 343 2 22 26 28 16 0 358 19 30 24 23 25 24 22 36 39 22 358 17 16 20 11 291 210 196 187 185 180 176 169 163 160 155 155 152
258 254 242 247 233 239 225 208 242 260 246 232 233 249 88 87 36 32 25 21 18 13 7 8 11 5 12 19 16 20 31 30 27 15 352 1 336 329 322 4 342 299 230 163 177 173 171 167 155 152 149 149 149 147
279 277 236 220 248 247 248 251 251 247 221 219 231 184 124 142 132 39 24 12 10 8 7 7 11 10 10 18 22 13 7 16 29 34 25 6 336 358 7 323 231 190 220 183 164 156 148 148 150 150 153 154 155 152
250 233 261 264 272 283 303 229 225 226 200 179 356 71 104 90 68 31 11 5 7 10 12 16 14 7 17 31 40 42 35 27 29 34 30 39 43 35 35 40 68 205 204 201 162 159 157 154 152 152 150 149 151 153
256 274 263 280 276 289 211 84 315 299 63 63 51 38 49 74 79 9 359 16 11 3 8 21 27 40 45 45 36 36 39 37 42 47 45 44 48 51 54 49 49 71 81 79 108 153 153 145 137 137 138 138 138 140